Regional Weather Roundup
Issued by NWS

Home | Current Version | Previous Version | Text Only | Print | Product List | Glossary Off
Versions: 1 2 3 4 5 6 7 8 9 10 11 12 13 14 15 16 17 18 19 20 21 22 23 24 25 26 27 28 29 30 31 32 33 34 35 36 37 38 39 40 41 42 43 44 45 46 47 48

451
ASUS45 KCYS 080710
RWRWY

WYOMING REGIONAL WEATHER ROUNDUP
NATIONAL WEATHER SERVICE CHEYENNE WY
1200 AM MST MON FEB 08 2016

NOTE:  "FAIR" INDICATES FEW OR NO CLOUDS BELOW 12,000 FEET
WITH NO SIGNIFICANT WEATHER AND/OR OBSTRUCTIONS TO VISIBILITY.

WYZ001-080800-
YELLOWSTONE NATIONAL PARK

CITY           SKY/WX    TMP DP  RH WIND       PRES   REMARKS
LK YELLOWSTONE   N/A     22  14  71 CALM      30.55S
W YELLOWSTONE  NOT AVBL

$$
WYZ002>013-054>058-071-098>099-080800-
NORTHERN WYOMING

CITY           SKY/WX    TMP DP  RH WIND       PRES   REMARKS
JACKSON        FAIR      16  10  79 N3        30.56R
CODY           FAIR      25  10  54 S3        30.39F
GREYBULL       CLOUDY    30  19  63 E3        30.43F
WORLAND        CLOUDY    28  19  69 CALM      30.43F
SHERIDAN       CLOUDY    30  14  51 W8        30.44R WCI  22
BUFFALO        CLOUDY    26  11  52 CALM      30.39S
GILLETTE       FAIR      20   9  62 W14       30.38R WCI   7
HULETT         FAIR      27  10  50 NW7       30.37R WCI  19
NEWCASTLE      FAIR      23  10  58 NW13      30.35S WCI  11

$$
WYZ014>020-022>026-101>103-080800-
CENTRAL WYOMING

CITY           SKY/WX    TMP DP  RH WIND       PRES   REMARKS
BIG PINEY      FAIR      22  13  68 N14       30.50R WCI   9
PINEDALE       FAIR      28  14  54 W20G25    30.47F WCI  15
DUBOIS         FAIR      32  14  47 NW26G32   30.44S WCI  18
LANDER         FAIR      14   9  80 SE5       30.43R WCI   6
RIVERTON       FAIR      21  11  65 SW3       30.44S
CASPER         FAIR      16   8  71 W7        30.40F WCI   6
DOUGLAS        MOCLDY    18  11  74 NW13        N/A  WCI   5

$$
WYZ021-027>030-104>119-080800-
SOUTHERN WYOMING

CITY           SKY/WX    TMP DP  RH WIND       PRES   REMARKS
EVANSTON       FAIR      21  13  71 W10       30.59R WCI  10
FORT BRIDGER   SUNNY     27  18  69 W23       30.59R WCI  12
ROCK SPRINGS   FAIR      27  17  66 W24       30.49R WCI  12
DIXON          CLOUDY    16  11  82 CALM      30.54S
RAWLINS        CLOUDY    25  18  74 W15       30.45R WCI  13
SARATOGA       CLOUDY    30  21  69 W17       30.45R WCI  18
LARAMIE          N/A     20  14  77 N6        30.34S WCI  12
CHEYENNE       CLOUDY    19  10  68 N15       30.33F WCI   5
TORRINGTON     FAIR      24  11  57 NW12      30.40S WCI  13
PINE BLUFFS    FAIR      21  10  63 NW12      30.37F WCI   9

$$




USA.gov is the U.S. government's official web portal to all federal, state and local government web resources and services.